Regional Weather Roundup
Issued by NWS

Home | Current Version | Previous Version | Text Only | Print | Product List | Glossary On
Versions: 1 2 3 4 5 6 7 8 9 10 11 12 13 14 15 16 17 18 19 20 21 22 23 24 25 26 27 28 29 30 31 32 33 34 35 36 37 38 39 40 41 42 43 44 45 46 47 48 49 50
000
ASUS45 KPSR 301010
RWRAZ

ARIZONA REGIONAL HOURLY WEATHER ROUNDUP
NATIONAL WEATHER SERVICE TUCSON AZ
300 AM MST TUE MAY 30 2017

NOTE: FAIR INDICATES FEW OR NO CLOUDS BELOW 12,000 FEET WITH NO
SIGNIFICANT WEATHER AND/OR OBSTRUCTIONS TO VISIBILITY.

AZZ001>003-036-301100-
NORTHWEST ARIZONA

CITY           SKY/WX    TMP DP  RH WIND       PRES   REMARKS
BULLHEAD CITY  CLEAR     81  21  11 CALM      29.73R
KINGMAN        MOCLDY    65  19  17 E3        29.93R
$$

AZZ004>008-015-016-018-301100-
NORTH CENTRAL ARIZONA

CITY           SKY/WX    TMP DP  RH WIND       PRES   REMARKS
GRAND CANYON   PTCLDY    42  28  57 CALM      30.17S
WILLIAMS       MOSUNNY   46  23  39 S8        30.16F
PRESCOTT       MOCLDY    59  22  24 S10       30.05S
FLAGSTAFF      PTCLDY    40  23  50 CALM      30.18F
PAYSON         MOSUNNY   66  25  20 VRB5      30.10S
PAGE           PTCLDY    66  24  20 SW5       30.02R
$$

AZZ009>014-017-301100-
NORTHEAST ARIZONA

CITY           SKY/WX    TMP DP  RH WIND       PRES   REMARKS
WINSLOW        CLEAR     59  31  34 SE7       30.08S
SAINT JOHNS    CLEAR     54  32  43 NE6       30.12S
WINDOW ROCK    CLEAR     43  27  53 CALM      30.22S
SHOW LOW       CLEAR     55  28  35 S14       30.17S
$$

AZZ023-301100-
GREATER PHOENIX AREA

CITY           SKY/WX    TMP DP  RH WIND       PRES   REMARKS
PHOENIX        PTCLDY    82  31  15 CALM      29.77R
BUCKEYE          N/A     72  25  17 NW7       29.78R
DEER VALLEY    MOCLDY    71  18  13 CALM      29.79R
SCOTTSDALE     PTCLDY    78  32  18 CALM      29.81R
MESA-GATEWAY   CLEAR     73  30  20 E8        29.80S
$$

AZZ027-028-301100-
SOUTHWEST MARICOPA COUNTY AND PINAL COUNTY

CITY           SKY/WX    TMP DP  RH WIND       PRES   REMARKS
CASA GRANDE    PTCLDY    73  31  21 CALM      29.81S
$$

AZZ503-504-507>509-301100-
SOUTHEAST ARIZONA

CITY           SKY/WX    TMP DP  RH WIND       PRES   REMARKS
TUCSON         PTCLDY    73  33  23 S3        29.90F
DAVIS-MONTHAN  PTCLDY    72  32  22 CALM      29.90S
NOGALES        MOCLDY    65  32  29 CALM      29.99S
SIERRA VISTA   MOCLDY    67  28  23 CALM      30.04S
DOUGLAS        PTCLDY    71  41  33 E12       30.01S
SAFFORD        PTCLDY    75  36  24 E12       29.99R
$$

AZZ020-021-025-026-031-301100-
SOUTHWEST ARIZONA

CITY           SKY/WX    TMP DP  RH WIND       PRES   REMARKS
YUMA           MOCLDY    77  41  27 W5        29.73S
$$

CAZ031-033-041-043-047-048-061-301100-
SOUTHERN CALIFORNIA

CITY           SKY/WX    TMP DP  RH WIND       PRES   REMARKS
DOWNTOWN L.A.  NOT AVBL
L.A. AIRPORT   CLOUDY    61  57  87 NE3       29.90S
SAN DIEGO      CLOUDY    61  56  83 SW3       29.91F
BURBANK        CLOUDY    60  54  80 SE5       29.89S
ONTARIO        CLOUDY    59  55  87 W3        29.90F
RIVERSIDE      CLOUDY    58  57  97 CALM      29.90F
PALM SPRINGS   CLEAR     74  54  49 SE3       29.75R
EL CENTRO NAS  CLEAR     71  45  39 S5        29.72R
IMPERIAL       CLEAR     76  50  40 SE7       29.70R
BLYTHE         PTCLDY    82  37  20 S12       29.72S
NEEDLES        CLEAR     82  21  10 CALM      29.74S
$$

NVZ020-UTZ003-301100-
SOUTHERN NEVADA-UTAH

CITY           SKY/WX    TMP DP  RH WIND       PRES   REMARKS
LAS VEGAS      PTCLDY    79  15   9 SW5       29.80S
SALT LAKE CITY CLEAR     63  42  46 SE7       30.05S
$$

NMZ009-TXZ055-301100-
NEW MEXICO-WEST TEXAS

CITY           SKY/WX    TMP DP  RH WIND       PRES   REMARKS
ALBUQUERQUE    PTCLDY    55  44  66 N8        30.22R
EL PASO        PTCLDY    66  46  48 N5        30.12R
$$


........................KEY........................
SKY/WX - SKY CONDITION/WEATHER
TMP    - TEMPERATURE IN FAHRENHEIT
DP     - DEWPOINT IN FAHRENHEIT
RH     - RELATIVE HUMIDITY IN PERCENT
WIND   - DIRECTION AND SPEED IN MILES PER HOUR (MPH)
VRB    - VARIABLE WIND DIRECTION
PRES   - MEAN SEA LEVEL PRESSURE IN INCHES OF MERCURY
         F - FALLING PRESSURE   R - RISING PRESSURE
         S - STEADY PRESSURE
VSB    - VISIBILITY IN MILES
HX     - HEAT INDEX IN FAHRENHEIT
WCI    - WIND CHILL INDEX IN FAHRENHEIT
TC     - TEMPERATURE IN CELSIUS WHICH IS ALSO KNOWN AS
         TEMPERATURE IN CENTIGRADE
AFB    - AIR FORCE BASE
         LUKE AFB IS LUKE AIR FORCE BASE
         DAVIS-MONTHAN IS DAVIS-MONTHAN AIR FORCE BASE
NAS    - NAVAL AIR STATION
         EL CENTRO NAS IS EL CENTRO NAVAL AIR STATION
N/A    - NOT AVAILABLE




USA.gov is the U.S. government's official web portal to all federal, state and local government web resources and services.